Torna al catalogo

ATLAS 5 CENTAUR R/B

AttivoMEO
NORAD 66455·ROCKET BODY·🇺🇸 United States

Lanciato Nov 13, 2025 da Cape Canaveral Space Force Station

Loading…

Prossimi Passaggi (prossime 24 ore)

TLE

AggiornatoSource: Space-Track

Epoca: Sep 14, 2026, 17:25 UTC

1 66455U 25261B   26257.72630738 -.00000091  00000-0  00000-0 0  9991
2 66455   5.8028 263.1495 2318582 242.9637 132.3058  2.28261472  6959

Traccia ATLAS 5 CENTAUR R/B in tempo reale con AllMySat

Download on the App Store